Plaisance, Mauritius

1:06 AM +04 on November 17, 2019 (GMT +0400)
Plaisance

Weather History for FIMP - October, 2019

Change the Weather History Date:

Monday, October 21, 2019

  Actual Average Record
Temperature  
Mean Temperature 75 °F -  
Max Temperature 81 °F 81 °F 86 °F (2018)
Min Temperature 70 °F 67 °F 66 °F (1999)
Cooling Degree Days 10    
Growing Degree Days 25 (Base 50)    
Moisture  
Dew Point 69 °F    
Average Humidity 82    
Maximum Humidity 100    
Minimum Humidity 61    
Precipitation  
Precipitation 0.08 in 0.11 in - ()
Sea Level Pressure  
Sea Level Pressure 30.05 in    
Wind  
Wind Speed 10 mph ()    
Max Wind Speed 18 mph    
Max Gust Speed -    
Visibility 6.3 miles    
Events Rain    
Averages and records for this station are not official NWS values.
T = Trace of Precipitation, MM = Missing Value Source: Averaged Metar Reports

Daily Weather History Graph

Daily Weather History Graph

Search for Another Location

Airport or City:

Astronomy

Oct. 21, 2019 Rise Set
Actual Time 5:34 AM +04 6:13 PM +04
Civil Twilight 5:11 AM +04 6:36 PM +04
Nautical Twilight 4:45 AM +04 7:02 PM +04
Astronomical Twilight 4:18 AM +04 7:29 PM +04
Moon 12:10 AM +04 (10/21) 11:23 AM +04 (10/21)
Length of Visible Light 13h 24m
Length of Day
12h 39m
Waning Gibbous, 52% of the Moon is Illuminated
Oct 21
Waning Gibbous
Oct 21
Last Quarter
Oct 28
New
Nov 4
First Quarter
Nov 12
Full

Hourly Weather History & Observations

Time (+04) Temp. Heat Index Dew Point Humidity Pressure Visibility Wind Dir Wind Speed Gust Speed Precip Events Conditions
12:00 AM 73.4 °F - 68.0 °F 83% 30.09 in 4.3 mi East 12.7 mph - N/A   Overcast
1:00 AM 71.6 °F - 68.0 °F 88% 30.09 in 4.3 mi ESE 9.2 mph - N/A   Overcast
2:00 AM 73.4 °F - 69.8 °F 88% 30.06 in 6.2 mi ENE 11.5 mph - N/A   Mostly Cloudy
3:00 AM 71.6 °F - 69.8 °F 94% 30.06 in 6.2 mi East 6.9 mph - N/A   Mostly Cloudy
4:00 AM 71 °F - 70 °F 94% 30.05 in 5 mi ENE 5.8 mph - - Rain Light Rain Showers
4:00 AM 69.8 °F - 69.8 °F 100% 30.04 in 5.0 mi ENE 5.8 mph - N/A Rain Light Rain Showers
5:00 AM 71.6 °F - 69.8 °F 94% 30.04 in 3.7 mi ENE 6.9 mph - N/A Rain Light Rain Showers
6:00 AM 71.6 °F - 69.8 °F 94% 30.06 in 4.3 mi East 6.9 mph - N/A Rain Light Rain Showers
7:00 AM 72 °F - 69 °F 85% 30.08 in 2 mi East 11.5 mph - - Rain Light Rain Showers
7:00 AM 71.6 °F - 68.0 °F 88% 30.06 in 2.5 mi East 11.5 mph - N/A Rain Light Rain Showers
8:00 AM 71.6 °F - 68.0 °F 88% 30.09 in 4.3 mi East 13.8 mph - N/A Rain Light Rain Showers
10:00 AM 78 °F - 70 °F 70% 30.07 in 11 mi East 18.4 mph - -   Mostly Cloudy
11:00 AM 78.8 °F - 69.8 °F 74% 30.06 in 6.2 mi ENE 16.1 mph - N/A   Scattered Clouds
1:00 PM 80 °F - 69 °F 61% 30.05 in 16 mi East 16.1 mph - -   Mostly Cloudy
1:00 PM 80.6 °F 83.9 °F 69.8 °F 70% 30.04 in 6.2 mi East 16.1 mph - N/A   Mostly Cloudy
3:00 PM 78.8 °F - 69.8 °F 74% 30.01 in 6.2 mi ENE 18.4 mph - N/A   Mostly Cloudy
4:00 PM 77 °F - 69 °F 69% 30.01 in 11 mi ENE 16.1 mph - -   Mostly Cloudy
5:00 PM 77.0 °F - 68.0 °F 74% 30.01 in 6.2 mi ENE 12.7 mph - N/A   Mostly Cloudy
7:00 PM 75 °F - 69 °F 77% 30.03 in 6 mi East 11.5 mph - -   Mostly Cloudy
8:00 PM 75.2 °F - 69.8 °F 83% 30.06 in 6.2 mi East 11.5 mph - N/A   Mostly Cloudy
10:00 PM 74 °F - 69 °F 80% 30.06 in 9 mi ENE 11.5 mph - -   Mostly Cloudy